SCP
1 1 1 1 1 1 1 1 1 1 1 0 0 0 0 0 0 0 0 0 0 0 0 0 0 0 0 0 0 0 0 0 0 0 0 0 0 0 0 0 0 0 0
1 1 1 1 1 1 1 1 1 1 1 0 0 0 0 0 0 0 0 0 0 0 0 0 0 0 0 0 0 0 0 0 0 0 0 0 0 0 0 0 0 0 0
1 1 1 1 1 1 1 1 1 1 0 0 0 0 0 0 0 0 0 0 0 0 0 0 0 0 0 0 0 0 0 0 0 0 0 0 0 0 0 0 0 0 0
1 1 1 1 1 1 0 0 0 0 0 0 0 0 0 0 0 0 0 0 0 0 0 0 0 0 0 0 0 0 0 0 0 0 0 0 0 0 0 0 0 0 0
1 1 1 1 1 1 0 0 0 0 0 0 0 0 0 0 0 0 0 0 0 0 0 0 0 0 0 0 0 0 0 0 0 0 0 0 0 0 0 0 0 0 0
1 1 1 1 1 1 0 0 0 0 0 0 0 0 0 0 0 0 0 0 0 0 0 0 0 0 0 0 0 0 0 0 0 0 0 0 0 0 0 0 0 0 0
2 2 1 1 1 1 1 0 0 0 0 0 0 0 0 0 0 0 0 0 0 0 0 0 0 0 0 0 0 0 0 0 0 0 0 0 0 0 0 0 0 0 0
2 2 2 2 2 1 1 1 0 0 0 0 0 0 0 0 0 0 0 0 0 0 0 0 0 0 0 0 0 0 0 0 0 0 0 0 0 0 0 0 0 0 0
2 2 2 2 1 1 1 1 1 1 0 0 0 0 0 0 0 0 0 0 0 0 0 0 0 0 0 0 0 0 0 0 0 0 0 0 0 0 0 0 0 0 0
2 2 2 1 1 1 1 1 1 1 1 0 0 0 0 0 0 0 0 0 0 0 0 0 0 0 0 0 0 0 0 0 0 0 0 0 0 0 0 0 0 0 0
2 2 2 1 1 1 1 1 1 1 1 0 0 0 0 0 0 0 0 0 0 0 0 0 0 0 0 0 0 0 0 0 0 0 0 0 0 0 0 0 0 0 0
2 2 2 2 1 1 1 1 1 1 1 0 0 0 0 0 0 0 0 0 0 0 0 0 0 0 0 0 0 0 0 0 0 0 0 0 0 0 0 0 0 0 0
2 2 2 2 2 2 2 1 1 1 1 0 0 0 0 0 0 0 0 0 0 0 0 0 0 0 0 0 0 0 0 0 0 0 0 0 0 0 0 0 0 0 0
2 2 2 2 3 3 2 2 2 1 1 1 0 0 0 0 0 0 0 0 0 0 0 0 0 0 0 0 0 0 0 0 0 0 0 0 0 0 0 0 0 0 0
2 2 2 3 3 3 3 2 2 2 2 1 1 0 0 0 0 0 0 0 0 0 0 0 0 0 0 0 0 0 0 0 0 0 0 0 0 0 0 0 0 0 0
1 2 2 3 3 3 3 3 3 2 2 2 1 1 1 1 0 0 0 0 0 0 0 0 0 0 0 0 0 0 0 0 0 0 0 0 0 0 0 0 0 0 0
1 2 2 3 3 3 4 4 3 3 3 2 2 2 1 1 1 1 1 0 0 0 0 0 0 0 0 0 0 0 0 0 0 0 0 0 0 0 0 0 0 0 0
0 1 2 3 3 4 5 5 4 3 3 3 2 2 2 2 1 1 1 0 0 0 0 0 0 0 0 0 0 0 0 0 0 0 0 0 0 0 0 0 0 0 0
0 1 2 3 4 4 5 6 5 4 3 3 3 3 2 2 1 1 0 0 0 0 0 0 0 0 0 0 0 0 0 0 0 0 0 0 0 0 0 0 0 0 0
0 0 1 3 4 5 6 7 6 5 4 4 3 3 3 2 1 1 0 0 0 0 0 0 0 0 0 0 0 0 0 0 0 0 0 0 0 0 0 0 0 0 0
0 0 1 2 4 5 7 8 7 5 4 4 3 3 2 1 1 0 0 0 0 0 0 0 0 0 0 0 0 0 0 0 0 0 0 0 0 0 0 0 0 0 0
0 0 0 1 4 6 7 8 7 5 4 3 3 2 1 1 0 0 0 0 0 0 0 0 0 0 0 0 0 0 0 0 0 0 0 0 0 0 0 0 0 0 0
0 0 0 1 3 5 7 7 6 5 4 3 2 1 1 0 0 0 0 0 0 0 0 0 0 0 0 0 0 0 0 0 0 0 0 0 0 0 0 0 0 0 0
0 0 0 1 3 5 6 6 5 4 3 2 1 1 0 0 0 0 0 0 0 0 0 0 0 0 0 0 0 0 0 0 0 0 0 0 0 0 0 0 0 0 0
0 0 0 1 3 5 6 6 5 4 2 1 0 0 0 0 0 0 0 0 0 0 0 0 0 0 0 0 0 0 0 0 0 0 0 0 0 0 0 0 0 0 0
0 0 0 1 3 4 6 5 5 4 2 0 0 0 0 0 0 0 0 0 0 0 0 0 0 0 0 0 0 0 0 0 0 0 0 0 0 0 0 0 0 0 0
Wind_Speed
12 15 18 18 17 16 15 15 14 14 13 14 14 14 13 12 11 11 10 10 9 9 9 7 5 7 10 11 12 12 11 10 8 6 4 3 5 6 7 7 7 4 6
16 16 18 18 17 16 16 15 14 13 12 12 13 13 12 12 11 10 10 9 9 10 10 10 9 11 12 12 12 11 9 8 5 4 3 1 2 5 7 7 7 4 6
18 17 16 17 17 16 16 14 13 12 11 11 12 12 12 11 11 10 10 9 10 10 11 12 12 13 14 13 11 10 8 6 4 6 8 2 4 6 6 6 6 5 5
18 16 15 17 17 17 15 14 13 12 11 11 11 12 12 12 11 11 10 10 10 11 12 13 13 13 12 11 10 8 7 5 5 8 4 3 4 7 6 5 5 5 5
16 14 17 18 18 17 15 14 12 11 11 11 11 12 12 12 11 11 11 11 11 11 11 11 11 10 10 9 7 6 5 4 7 8 3 3 5 6 6 5 5 5 6
15 14 17 18 18 17 16 14 13 12 11 12 12 12 11 11 11 11 11 11 10 10 10 10 9 9 8 7 5 5 4 5 9 4 1 5 5 6 6 5 6 6 6
14 16 16 18 19 17 16 15 13 13 12 12 12 11 10 11 11 11 11 10 9 9 8 8 8 7 6 5 4 4 4 6 6 3 3 6 5 6 6 7 7 7 7
14 16 14 17 17 17 16 15 14 13 12 12 11 10 9 9 10 11 11 10 8 8 7 7 6 5 4 4 3 3 3 6 6 4 4 6 6 6 7 8 8 9 9
15 15 13 12 13 15 15 14 13 12 11 11 10 9 8 8 10 11 11 9 8 6 6 5 5 5 4 3 3 2 4 6 5 3 6 5 7 7 8 8 9 10 11
12 15 13 12 11 10 11 13 13 12 11 10 9 9 9 8 10 11 10 8 7 6 5 5 4 4 3 2 1 2 5 7 4 2 5 5 9 8 8 9 10 11 13
9 12 13 13 11 11 10 12 12 11 10 10 8 10 8 6 7 8 9 9 8 7 6 5 3 3 3 3 3 4 5 3 2 5 4 7 8 8 9 10 11 12 12
6 9 12 13 12 11 10 9 7 8 7 7 6 7 5 5 6 8 10 10 9 7 6 5 4 4 4 2 3 3 1 4 4 5 4 8 8 8 10 11 11 12 12
8 7 9 12 12 11 8 8 6 5 6 7 9 9 6 4 5 6 4 5 5 6 4 4 3 1 1 2 1 2 3 3 3 5 5 10 9 9 10 11 11 11 12
13 11 8 9 11 11 9 8 7 6 6 5 6 9 5 4 4 5 4 5 4 3 3 2 1 3 3 3 4 4 5 3 3 4 5 11 11 10 10 11 11 11 11
10 13 11 9 10 10 9 7 7 7 7 6 5 6 6 4 4 4 3 3 3 3 3 2 3 4 3 4 4 4 3 3 3 5 4 11 11 11 10 10 11 11 11
6 11 12 11 9 10 9 7 7 6 6 6 5 6 7 5 4 4 4 4 3 3 3 3 4 3 3 3 3 3 3 3 3 5 5 7 11 10 9 9 10 10 11
6 8 11 13 11 10 10 10 7 6 7 6 6 7 7 6 6 5 4 4 4 4 4 4 4 3 3 2 2 2 2 2 2 2 5 4 5 7 7 7 8 10 11
7 7 9 11 12 11 9 10 7 7 7 6 7 6 8 7 7 6 5 4 5 4 4 3 3 3 3 3 2 2 2 1 1 2 3 4 4 3 3 3 6 9 10
9 8 8 9 10 10 10 8 8 7 7 6 6 6 7 8 8 7 5 5 5 5 4 4 4 3 3 2 2 1 1 1 1 2 2 4 4 3 1 1 4 7 10
10 10 9 10 11 9 8 6 6 6 5 5 6 7 8 7 9 8 6 6 6 5 4 4 4 3 3 2 3 1 0 1 1 2 1 2 3 3 2 0 1 4 9
9 9 9 10 11 9 8 8 8 7 5 4 4 8 9 9 10 9 7 7 6 5 5 5 4 4 3 3 2 2 1 1 2 2 2 1 1 2 2 0 1 1 3
10 9 9 8 10 11 9 8 6 6 4 4 4 6 8 9 10 9 9 7 6 6 6 5 4 3 2 2 2 1 2 2 2 2 2 2 2 0 0 1 1 2 2
11 10 9 9 10 11 11 8 8 6 5 3 4 4 6 8 9 9 9 8 7 6 5 5 4 4 3 2 3 2 2 1 3 3 2 1 1 1 1 2 3 3 3
11 10 9 9 10 11 13 13 15 11 8 6 5 5 7 8 9 9 9 9 8 6 6 5 4 3 3 2 1 2 2 2 0 4 4 2 2 2 3 3 3 4 4
8 9 10 9 10 11 14 16 15 10 7 9 9 10 8 7 8 9 9 8 8 6 7 6 4 4 3 3 2 1 1 0 2 2 4 4 4 3 4 4 4 4 5
6 5 7 9 9 10 13 15 13 13 15 16 14 12 9 7 7 9 9 8 8 7 6 6 5 5 4 3 2 1 1 0 0 1 3 3 4 4 5 5 6 5 4
Wind_Direction
126 135 143 138 133 129 125 122 119 117 117 117 116 112 106 101 96 91 84 76 66 59 56 58 78 103 116 106 97 87 79 71 62 51 45 49 59 46 37 24 8 31 56
130 137 142 138 134 130 126 123 120 120 121 121 121 117 111 104 99 92 85 78 70 64 58 58 79 93 101 100 94 86 76 66 49 6 329 275 96 59 39 26 19 21 26
131 137 140 137 135 131 127 124 122 123 125 127 127 123 116 109 102 94 87 82 76 72 67 67 78 85 86 89 86 79 70 59 18 332 311 243 134 65 41 24 14 13 6
132 140 141 138 136 133 129 126 125 126 128 131 131 128 121 113 105 95 91 88 84 81 78 77 77 81 82 82 79 73 64 39 338 321 318 70 89 62 40 19 7 0 352
135 142 137 141 139 135 132 130 129 129 131 132 133 130 125 118 109 100 98 95 92 89 87 86 84 83 83 81 76 70 56 5 323 299 279 91 85 53 35 16 1 349 339
138 134 141 142 141 139 137 135 135 135 135 134 134 133 131 126 116 109 107 104 100 95 92 91 90 87 84 81 75 64 36 343 314 291 52 81 83 44 25 10 2 349 336
137 133 145 145 144 144 143 142 142 143 140 139 139 139 139 133 125 121 119 114 108 101 95 92 90 88 84 76 65 48 13 324 293 289 75 79 67 40 19 17 13 4 352
132 134 146 148 147 149 149 149 150 151 151 150 149 146 145 141 135 132 129 124 117 107 97 93 89 88 84 71 51 27 339 305 312 336 81 83 53 29 25 26 22 22 24
132 137 146 153 154 155 155 155 157 157 158 159 157 145 133 134 142 143 138 133 124 113 102 94 90 90 84 71 47 352 307 296 294 303 71 69 38 30 32 34 33 35 35
138 143 154 159 162 162 161 161 161 161 161 161 152 137 134 139 148 151 145 138 130 120 112 103 96 98 105 110 125 285 294 297 273 45 72 54 39 32 39 45 46 47 46
147 151 160 164 167 166 167 167 163 162 164 160 148 152 155 167 161 157 145 141 139 135 128 124 129 152 163 182 222 261 293 293 38 76 64 49 43 45 56 58 53 49 46
164 163 164 168 170 169 170 163 168 168 167 174 169 171 192 197 157 141 142 147 150 148 145 159 181 214 213 185 232 263 330 359 34 76 56 56 58 63 66 64 56 49 45
180 185 173 172 171 172 166 165 172 173 170 193 179 179 197 165 129 134 148 149 159 163 171 182 196 217 90 94 18 33 40 24 38 68 53 64 67 71 70 64 55 47 39
177 182 186 177 171 174 169 172 171 173 172 187 177 175 181 152 156 162 163 169 170 164 152 145 131 97 57 55 46 41 32 29 52 80 67 71 72 71 68 61 51 42 34
181 175 182 184 177 176 172 174 175 174 174 176 170 171 162 151 165 155 143 139 133 129 127 105 81 74 50 40 40 48 35 32 50 83 80 80 78 73 65 56 46 35 25
200 176 174 180 185 177 175 174 177 176 171 170 166 173 163 158 163 143 135 123 111 103 102 98 88 81 64 47 23 24 31 34 51 92 112 89 86 79 65 51 38 26 14
215 187 175 177 183 183 180 177 178 175 171 169 167 176 168 158 150 140 131 124 120 114 101 89 84 78 68 31 13 30 41 46 34 98 125 123 105 91 75 50 27 12 2
220 207 187 177 180 184 183 177 174 176 172 172 168 172 168 157 145 135 127 125 119 106 98 90 79 79 66 31 6 3 5 54 13 82 106 120 120 110 93 52 15 360 350
212 209 194 175 176 181 179 171 167 172 173 171 167 165 163 154 140 128 124 123 114 102 99 94 64 70 65 21 319 286 343 55 87 86 95 113 111 108 114 306 359 347 340
216 208 194 179 176 175 168 160 158 170 175 169 163 159 154 141 130 124 126 123 114 110 106 105 106 78 62 359 310 310 169 115 139 149 138 129 153 174 194 16 21 346 339
222 213 202 186 178 172 169 170 170 173 165 154 149 146 138 133 130 131 129 124 124 126 131 130 119 103 55 1 359 338 297 202 199 173 173 171 208 197 183 209 39 14 329
230 216 208 192 181 176 175 171 161 138 120 105 106 115 124 129 133 135 133 131 127 121 112 109 108 110 81 37 48 15 354 331 299 225 180 199 233 197 196 322 349 321 306
231 223 212 201 188 177 163 146 124 105 93 98 107 110 120 126 128 132 131 128 124 120 120 114 111 115 130 83 57 95 107 282 320 313 263 221 215 256 280 295 290 282 289
225 221 215 202 192 176 162 158 160 166 160 159 138 123 117 120 128 129 128 126 121 118 117 115 109 112 116 123 99 68 117 130 110 317 319 322 350 327 302 294 292 279 272
232 218 209 201 192 176 166 164 168 164 136 128 127 128 125 125 125 126 125 123 121 118 114 111 106 97 103 109 107 84 64 66 195 210 282 305 324 315 316 301 285 272 263
249 233 208 193 185 170 162 163 166 157 145 144 145 143 138 134 127 125 124 121 118 117 118 120 115 97 93 93 87 99 127 171 283 259 275 297 295 288 298 284 278 268 258